Regional Weather Roundup
Issued by NWS Northern Indiana

Home | Current Version | Previous Version | Graphics & Text | Print | Product List | Glossary On
Versions: 1 2 3 4 5 6 7 8 9 10 11 12 13 14 15 16 17 18 19 20 21 22 23 24 25 26 27 28 29 30 31 32 33 34 35 36 37 38 39 40 41 42 43 44 45 46 47 48 49 50
000
ASUS43 KIWX 292300
RWRIWX

KIWX WEATHER ROUNDUP
NATIONAL WEATHER SERVICE NORTHERN INDIANA
700 PM EDT FRI AUG 29 2014

NOTE: "FAIR" INDICATES FEW OR NO CLOUDS BELOW 12,000 FEET WITH NO
SIGNIFICANT WEATHER AND/OR OBSTRUCTIONS TO VISIBILITY.

* THESE STATIONS ARE NOT UNDER NWS QUALITY CONTROL. THEY ALSO MAY NOT
  REPORT WEATHER SUCH AS PRECIPITATION OR FOG.

INZ001>027-300000-
NORTHERN INDIANA

CITY           SKY/WX    TMP DP  RH WIND       PRES   REMARKS
GARY*          PTSUNNY   82  72  69 SE14      29.91F
VALPARAISO     LGT RAIN  77  72  84 SW12      29.95S
KNOX*          PTSUNNY   77  71  81 SE3       29.93F
SOUTH BEND     PTSUNNY   77  72  84 SE7       29.95F
ELKHART*       PTSUNNY   75  73  94 CALM      29.96F
GOSHEN         PTSUNNY   81  70  69 SE14      29.96F
MONTICELLO*    PTSUNNY   80  72  78 E5        29.93S
ANGOLA*        SUNNY     79  68  69 S6        30.00F
FORT WAYNE     MOSUNNY   80  69  69 SE7       30.00S
PERU/GRISSOM   PTSUNNY   82  75  79 SE9       29.95F

$$
INZ028>050-300000-
CENTRAL INDIANA

CITY           SKY/WX    TMP DP  RH WIND       PRES   REMARKS
LAFAYETTE      MOSUNNY   80  69  69 S6        29.94R
KOKOMO*        PTSUNNY   81  72  74 SE7       29.96F
MUNCIE*        SUNNY     83  68  60 SE10      29.99S
INDIANAPOLIS   PTSUNNY   83  71  67 SE9       29.94S

$$
MIZ043>046-050>051-056>058-064>065-071>073-077>080-300000-
SOUTHWEST LOWER MICHIGAN

CITY           SKY/WX    TMP DP  RH WIND       PRES   REMARKS
BATTLE CREEK   LGT RAIN  78  69  73 S6        29.99F
BENTON HARBOR  CLOUDY    77  70  79 SE12      29.93F
COLDWATER*     PTSUNNY   80  67  63 SE5       29.99F
HILLSDALE*     MOSUNNY   80  65  60 SE7       30.02F
HOLLAND        CLOUDY    77  71  82 SE7       29.94F
GRAND RAPIDS   CLOUDY    74  72  93 SE9       29.95F
KALAMAZOO      CLOUDY    77  70  79 S8        29.97F
STURGIS*       PTSUNNY   79  70  73 SE7       29.97F
THREE RIVERS*  LGT RAIN  76  72  85 SE5       29.97F

$$
OHZ001>008-015>018-024>025-300000-
NORTHWEST OHIO

CITY           SKY/WX    TMP DP  RH WIND       PRES   REMARKS
DEFIANCE       MOSUNNY   82  66  58 SE5       30.01F
FINDLAY        MOSUNNY   81  64  56 SE7       30.03S
TOLEDO EXPRESS SUNNY     80  63  55 VRB5      30.02F
TOLEDO METCALF MOSUNNY   82  59  45 SE10      30.03F
LIMA           SUNNY     82  66  58 SE6       30.03F

$$
&&



USA.gov is the U.S. government's official web portal to all federal, state and local government web resources and services.